XJS B (43519 NORAD) Tracking and Keplerian Element Data

This shows tracking and keplerian element data for the satellite.

Feedback or suggestion? Click here.




ElementValue
Catalog43519
NameXJS B
Epoch Orbit439
Epoch Day206.81861203
Epoch Year2018
RAAN121.0754
Inclination35.0029
Eccentricity0.0006213
Argument of Perigee193.7658
Mean Anonmoly208.8515
Mean Motion15.27949683
Decay Rate-3.9E-07
L11 43519U 18054B 18206.81861203 -.00000039 00000-0 00000-0 0 9999
L22 43519 35.0029 121.0754 0006213 193.7658 208.8515 15.27949683 4393

Live tracking and technical data element details for XJS B (NORAD 43519). XJS B can be tracked NOW for your location showing map with azimuth and elevation plus other details from your city location.

Track the satellite on the map from your city or location and see movement details for azimuth, elevation, latitude, longitude, range, height, and movement on the map or in text.







IsCatalogInMostPopularTable: catalog: 43519, numindb: 45
Update: records affected: 1



GetName: 43519 XJS B

Hit Count: updated at: Mon, 19 Nov 2018 15:38:05 GMT